Regional Weather Roundup
Issued by NWS Albany, NY

Home | Current Version | Previous Version | Graphics & Text | Print | Product List | Glossary On
Versions: 1 2 3 4 5 6 7 8 9 10 11 12 13 14 15 16 17 18 19 20 21 22 23 24 25 26 27 28 29 30 31 32 33 34 35 36 37 38 39 40 41 42 43 44 45 46 47 48 49 50
000
ASUS41 KALY 041210
RWRALY

NEW YORK STATE HOURLY WEATHER ROUNDUP
NATIONAL WEATHER SERVICE ALBANY NY
800 AM EDT TUE AUG 04 2015

NOTE: "FAIR" INDICATES FEW OR NO CLOUDS BELOW 12,000 FEET WITH NO
SIGNIFICANT WEATHER AND/OR NO OBSTRUCTIONS TO VISIBILITY.

NYZ032-033-038>043-046>054-057>066-NYZ062>081-041300-
EAST


CITY           SKY/WX    TMP DP  RH WIND       PRES   REMARKS
ALBANY         MOSUNNY   69  65  86 SE3       29.83F
GLENS FALLS    PTSUNNY   67  63  87 S3        29.82F
POUGHKEEPSIE   CLOUDY    70  66  87 S3        29.85R
NEWBURGH       PTSUNNY   68  66  94 SW5       29.87S
MONTGOMERY     CLOUDY    69  66  90 SW5       29.86S
WHITE PLAINS   CLOUDY    71  66  84 W3        29.86R
ISLIP          CLOUDY    73  66  78 W6        29.85S
NEW YORK CITY  CLOUDY    74  63  68 SW9       29.86S
CENTRAL PARK   CLOUDY    70  65  84 W6        29.89S
$$

NYZ005>009-017-018-044>046-055-056-041300-
CENTRAL


CITY           SKY/WX    TMP DP  RH WIND       PRES   REMARKS
FULTON         SUNNY     67  62  84 W3        29.85S
SYRACUSE       MOSUNNY   69  64  84 W9        29.85S
ROME           SUNNY     63  61  93 CALM      29.86S
ELMIRA         MOSUNNY   63  62  97 W5        29.88S
BINGHAMTON     MOSUNNY   64  61  90 SW8       29.89S
MONTICELLO     MOSUNNY   66  64  94 W3        29.90F
$$

NYZ026>034-041>043-041300-
NORTH


CITY           SKY/WX    TMP DP  RH WIND       PRES   REMARKS
WATERTOWN      CLOUDY    67  63  87 S6        29.83S
FORT DRUM      NOT AVBL
MASSENA        PTSUNNY   66  60  81 SW8       29.81S
SARANAC LAKE   CLOUDY    58  57  97 SW5       29.84S THUNDER
PLATTSBURGH    SUNNY     69  60  73 CALM      29.80S
$$

NYZ001>004-010>016-019>021-041300-
WEST


CITY           SKY/WX    TMP DP  RH WIND       PRES   REMARKS
NIAGARA FALLS  PTSUNNY   66  59  78 CALM      29.87R
BUFFALO        PTSUNNY   66  60  81 S5        29.88R
DUNKIRK        PTSUNNY   66  63  90 SW6       29.89R
JAMESTOWN      CLOUDY    61  57  88 S3        29.94R VSB<1/4
WELLSVILLE     MOSUNNY   62  59  90 SW7       29.95R FOG
ROCHESTER      PTSUNNY   65  61  87 W5        29.87S
PENN YAN       SUNNY     66  62  87 SW8       29.89R
$$

             KEY
       WCI = WIND CHILL INDEX
       VSB = VISIBILITY
       HX  = HEAT INDEX
$$



USA.gov is the U.S. government's official web portal to all federal, state and local government web resources and services.